Regional Weather Roundup
Issued by NWS Northern Indiana

Home | Current Version | Previous Version | Text Only | Print | Product List | Glossary Off
Versions: 1 2 3 4 5 6 7 8 9 10 11 12 13 14 15 16 17 18 19 20 21 22 23 24 25 26 27 28 29 30 31 32 33 34 35 36 37 38 39 40 41 42 43 44 45 46 47 48 49 50

000
ASUS43 KIWX 060110
RWRIWX

KIWX WEATHER ROUNDUP
NATIONAL WEATHER SERVICE NORTHERN INDIANA
800 PM EST THU MAR 05 2015

NOTE: "FAIR" INDICATES FEW OR NO CLOUDS BELOW 12,000 FEET WITH NO
SIGNIFICANT WEATHER AND/OR OBSTRUCTIONS TO VISIBILITY.

* THESE STATIONS ARE NOT UNDER NWS QUALITY CONTROL. THEY ALSO MAY NOT
  REPORT WEATHER SUCH AS PRECIPITATION OR FOG.

INZ001>027-060200-
NORTHERN INDIANA

CITY           SKY/WX    TMP DP  RH WIND       PRES   REMARKS
GARY*          CLEAR     16  -2  45 W14       30.55R WCI   1
VALPARAISO     FAIR      10  -1  61 CALM      30.52R
MICHIGAN CITY* CLEAR     12  -2  52 CALM      30.53R
LAPORTE*       CLEAR     12   0  59 CALM      30.52R
KNOX*            N/A     10  -9  40 W6        30.52R WCI   1
SOUTH BEND     CLEAR     12   2  64 NW3       30.51R
ELKHART*       PTCLDY    14   3  62 CALM      30.51R
GOSHEN         CLEAR      9   1  70 W7        30.50R WCI  -2
MONTICELLO*    FAIR      10   1  66 W8        30.53R WCI  -2
LOGANSPORT*    CLEAR      7  -4  61 W6        30.53S WCI  -3
ROCHESTER*     CLEAR     18   5  57 W5        30.52R WCI  11
WARSAW*        CLEAR     14   3  62 NW3       30.50R
ANGOLA*        MOCLDY    14  10  85 W5        30.46R WCI   6
FORT WAYNE     PTCLDY    13   5  70 W6        30.51R WCI   4
HUNTINGTON*    FAIR      15   4  62 CALM      30.51R
PERU/GRISSOM   CLEAR      9   0  68 W8        30.50R WCI  -4
MARION*        CLEAR      7   4  86 W5        30.51S WCI  -2

$$
INZ028>050-060200-
CENTRAL INDIANA

CITY           SKY/WX    TMP DP  RH WIND       PRES   REMARKS
LAFAYETTE      CLEAR      9   0  67 W7        30.56R WCI  -2
KOKOMO*        CLEAR     10   1  67 W7        30.52R WCI   0
MUNCIE*        CLEAR     14   6  70 NW6       30.50R WCI   5
INDIANAPOLIS   CLEAR     14   4  64 NW9       30.52R WCI   2

$$
MIZ043>046-050>051-056>058-064>065-071>073-077>080-060200-
SOUTHWEST LOWER MICHIGAN

CITY           SKY/WX    TMP DP  RH WIND       PRES   REMARKS
BATTLE CREEK   CLEAR     13   2  61 NW8       30.47R WCI   2
BENTON HARBOR  CLEAR     11   4  73 W3        30.51R
COLDWATER*     CLEAR      9  -1  64 CALM      30.46R
HILLSDALE*     CLEAR     10   0  64 CALM      30.44R
HOLLAND        CLEAR      8   0  69 SW3       30.50R
GRAND RAPIDS   PTCLDY    10   1  67 W9        30.47S WCI  -3
KALAMAZOO      CLEAR     13   4  67 NW6       30.49R WCI   4
STURGIS*       CLEAR     14   3  62 W7        30.48R WCI   4
THREE RIVERS*  FAIR      12   4  71 NW6       30.50R WCI   3

$$
OHZ001>008-015>018-024>025-060200-
NORTHWEST OHIO

CITY           SKY/WX    TMP DP  RH WIND       PRES   REMARKS
WAUSEON*       FAIR      10   0  61 CALM      30.48R
DEFIANCE       CLEAR     12   2  64 SW3       30.50R
FINDLAY        CLEAR     11   2  67 CALM      30.48R
TOLEDO EXPRESS CLEAR     10   0  63 CALM      30.49R
TOLEDO METCALF CLEAR     15   0  51 W3        30.50R
LIMA           CLEAR     16   5  62 CALM      30.48R

$$
AND FOR LAKE MICHIGAN COASTAL AND OPEN LAKE BUOY OBSERVATIONS

STATION/POSITION TEMP    WIND        PRES    VSBY  WAVE
                 AIR SEA DIR/SP/G                  HT/PER
                 (F)     (DEG/KT/KT) (MB)    (MI)  (FT/S)
CALUMET HARBOR    15     230/  7/ 12 1032.6R
MICHIGAN CITY     14     320/  1/  2   N/A
SAINT JOSEPH      13     170/  2/  3 1034.2R

$$
&&



USA.gov is the U.S. government's official web portal to all federal, state and local government web resources and services.